Regional Weather Roundup
Issued by NWS Bismarck, ND

Home | Current Version | Previous Version | Text Only | Print | Product List | Glossary On
Versions: 1 2 3 4 5 6 7 8 9 10 11 12 13 14 15 16 17 18 19 20 21 22 23 24 25 26 27 28 29 30 31 32 33 34 35 36 37 38 39 40 41 42 43 44 45 46 47 48 49 50
000
ASUS43 KBIS 300510
RWRBIS

NWR BROADCAST TEXT
NATIONAL WEATHER SERVICE BISMARCK ND
1200 AM CDT THU MAR 30 2017

NOTE: "FAIR" INDICATES FEW OR NO CLOUDS BELOW 12,000 FEET WITH NO
SIGNIFICANT WEATHER AND/OR OBSTRUCTIONS TO VISIBILITY.


CITY           SKY/WX    TMP DP  RH WIND       PRES   REMARKS
WILLISTON      FAIR      43  32  65 SW3       29.83S
MINOT          FAIR      47  39  74 S10       29.82F
MINOT AFB      NOT AVBL
BISMARCK       CLOUDY    51  35  54 S22G30    29.93R
DICKINSON      FAIR      38  30  73 S8        29.85S
GARRISON         N/A     42  36  79 SW7       29.85S
HETTINGER ARPT FAIR      43  37  79 S9        29.90S
JAMESTOWN      CLOUDY    42  36  79 S18       29.97S
HAZEN          MOCLDY    50  37  62 S14       29.87F
LINTON           N/A     43  39  87 S20G25    29.98R
MANDAN         CLOUDY    48  36  61 S22       29.91S
STANLEY        MOCLDY    39  37  93 CALM      29.85F
TIOGA          FAIR      41  32  70 CALM      29.84S
WATFORD CITY   FAIR      36  32  87 CALM      29.83F
$$

CITY           SKY/WX    TMP DP  RH WIND       PRES   REMARKS
GRAND FORKS    FAIR      44  38  79 S16       29.99R
GRAND FORKS AF MOCLDY    45  36  70 S18G25    29.97S
DEVILS LAKE    CLOUDY    47  36  65 S22G31    29.90S
FARGO          FAIR      44  38  79 S18       30.03F
CAVALIER       FAIR      46  37  71 S16       29.92S
GRAFTON        MOCLDY    45  37  76 S15G22    29.97S
GWINNER        CLEAR     39  36  87 MISG      30.04F
LANGDON        CLOUDY    43  39  87 SW10G17   29.91F
ROLLA          CLOUDY    39  39 100 CALM      29.87F
$$

CITY           SKY/WX    TMP DP  RH WIND       PRES   REMARKS
ABERDEEN       FAIR      38  32  79 SE9       30.03F
MOBRIDGE       MOCLDY    42  32  67 S12       29.95S
BUFFALO          N/A     44  38  79 S14       29.81F
RAPID CITY     FAIR      37  35  92 CALM      29.92F
GLASGOW        CLOUDY    47  32  56 E9        29.77F
SIDNEY         FAIR      38  31  76 CALM      29.83F
WOLF POINT     CLOUDY    47  36  65 NE5       29.80F
GLENDIVE       MOCLDY    46  32  58 SE3       29.82F
MILES CITY     CLOUDY    49  33  54 SE6       29.81F
BAKER          CLOUDY    38  32  79 CALM      29.86F
$$

CITY           SKY/WX    TMP DP  RH WIND       PRES   REMARKS
BILLINGS       MOCLDY    52  38  58 W6        29.82F
GREAT FALLS    FAIR      50  34  54 SW20      29.76F
REGINA         CLOUDY    41  36  81 SE2       29.77F
ESTEVAN        CLOUDY    41  34  75 SW8       29.80S
$$




USA.gov is the U.S. government's official web portal to all federal, state and local government web resources and services.